Location: Unspecified
(43.0000°N, 0.0000°E)
Time: 12:59:36
(UTC+00:00)

PicSat - Pass Details

Date: 21 August 2020
Orbit: 482 x 496 km, 97.4° (Epoch: 21 September)

Event Time Altitude Azimuth Distance (km) Brightness Sun altitude
Exits shadow 22:17:25 23° 327° (NNW) 1,111 ? -30.2°
Drops below altitude 10° 22:18:56 10° 337° (NNW) 1,699 ? -30.3°
Sets 22:21:04 0° 343° (NNW) 2,584 ? -30.5°
